Time,TemperatureF,DewpointF,PressureIn,WindDirection,WindDirectionDegrees,WindSpeedMPH,WindSpeedGustMPH,Humidity,HourlyPrecipIn,Conditions,Clouds,dailyrainin,SoftwareType,DateUTC
2013-05-21 04:04:00,56.9,48.2,29.87,North,0,0.0,0.0,73,0.00,,,0.00,WUHU216HW,2013-05-21 11:04:00,
2013-05-21 05:04:00,57.4,47.7,29.86,North,0,0.0,0.0,70,0.00,,,0.00,WUHU216HW,2013-05-21 12:04:00,
2013-05-21 06:04:00,56.7,46.3,29.87,North,0,0.0,0.0,68,0.00,,,0.00,WUHU216HW,2013-05-21 13:04:00,
2013-05-21 07:04:00,77.4,56.8,29.89,North,0,0.0,0.0,49,0.00,,,0.00,WUHU216HW,2013-05-21 14:04:00,
2013-05-21 08:04:00,81.5,53.5,29.89,SSW,203,1.1,1.1,38,0.00,,,0.00,WUHU216HW,2013-05-21 15:04:00,
2013-05-21 09:04:00,81.0,52.9,29.90,SSW,205,1.7,3.6,38,0.00,,,0.00,WUHU216HW,2013-05-21 16:04:00,
2013-05-21 09:09:00,81.4,52.5,29.90,South,182,2.1,3.1,37,0.00,,,0.00,WUHU216HW,2013-05-21 16:09:00,
2013-05-21 09:14:00,82.1,53.9,29.90,SSW,196,2.4,3.8,38,0.00,,,0.00,WUHU216HW,2013-05-21 16:14:00,
2013-05-21 09:19:00,82.4,53.5,29.90,South,176,2.0,3.4,37,0.00,,,0.00,WUHU216HW,2013-05-21 16:19:00,
2013-05-21 09:24:00,82.6,53.6,29.90,SSE,148,2.4,3.6,37,0.00,,,0.00,WUHU216HW,2013-05-21 16:24:00,
2013-05-21 09:29:00,83.3,52.7,29.90,SSW,197,2.8,4.0,35,0.00,,,0.00,WUHU216HW,2013-05-21 16:29:00,
2013-05-21 09:34:00,83.9,53.1,29.90,South,169,2.9,4.7,35,0.00,,,0.00,WUHU216HW,2013-05-21 16:34:00,
2013-05-21 09:39:00,83.5,52.0,29.90,South,173,2.3,4.3,34,0.00,,,0.00,WUHU216HW,2013-05-21 16:39:00,
2013-05-21 09:44:00,83.0,52.3,29.90,SSW,207,2.4,3.6,35,0.00,,,0.00,WUHU216HW,2013-05-21 16:44:00,
2013-05-21 09:49:00,83.3,51.8,29.90,South,183,2.9,4.0,34,0.00,,,0.00,WUHU216HW,2013-05-21 16:49:00,
2013-05-21 09:54:00,83.7,52.2,29.90,SSW,195,2.4,4.0,34,0.00,,,0.00,WUHU216HW,2013-05-21 16:54:00,
2013-05-21 09:59:00,84.6,53.8,29.90,SSW,202,2.1,3.4,35,0.00,,,0.00,WUHU216HW,2013-05-21 16:59:00,
2013-05-21 10:04:00,85.1,52.7,29.90,South,189,2.2,4.0,33,0.00,,,0.00,WUHU216HW,2013-05-21 17:04:00,
2013-05-21 10:09:00,85.0,50.9,29.90,South,177,2.4,4.7,31,0.00,,,0.00,WUHU216HW,2013-05-21 17:09:00,
2013-05-21 10:14:00,85.1,52.7,29.90,WSW,251,1.5,2.7,33,0.00,,,0.00,WUHU216HW,2013-05-21 17:14:00,
2013-05-21 10:19:00,85.7,53.2,29.90,WSW,257,0.9,2.2,33,0.00,,,0.00,WUHU216HW,2013-05-21 17:19:00,
2013-05-21 10:25:00,85.3,52.8,29.90,South,179,2.5,3.8,33,0.00,,,0.00,WUHU216HW,2013-05-21 17:25:00,
2013-05-21 10:30:00,85.1,52.7,29.90,SSW,209,1.1,2.0,33,0.00,,,0.00,WUHU216HW,2013-05-21 17:30:00,
2013-05-21 10:35:00,85.1,52.7,29.90,SSW,211,1.9,2.9,33,0.00,,,0.00,WUHU216HW,2013-05-21 17:35:00,
2013-05-21 10:40:00,85.3,52.0,29.90,West,264,1.4,3.8,32,0.00,,,0.00,WUHU216HW,2013-05-21 17:40:00,
2013-05-21 10:45:00,85.3,52.8,29.90,West,279,2.4,4.3,33,0.00,,,0.00,WUHU216HW,2013-05-21 17:45:00,
2013-05-21 10:50:00,85.9,51.8,29.90,SSW,205,1.6,2.9,31,0.00,,,0.00,WUHU216HW,2013-05-21 17:50:00,
2013-05-21 10:55:00,85.7,52.4,29.90,West,277,2.1,4.3,32,0.00,,,0.00,WUHU216HW,2013-05-21 17:55:00,
2013-05-21 11:00:00,86.4,52.2,29.90,SW,226,1.4,2.5,31,0.00,,,0.00,WUHU216HW,2013-05-21 18:00:00,
2013-05-21 11:05:00,87.7,53.2,29.90,WSW,252,1.7,3.8,31,0.00,,,0.00,WUHU216HW,2013-05-21 18:05:00,
2013-05-21 11:10:00,88.2,52.9,29.90,SW,234,2.2,5.1,30,0.00,,,0.00,WUHU216HW,2013-05-21 18:10:00,
2013-05-21 11:15:00,88.2,54.6,29.89,West,269,1.8,3.6,32,0.00,,,0.00,WUHU216HW,2013-05-21 18:15:00,
2013-05-21 11:20:00,88.7,55.8,29.89,WSW,248,1.4,2.9,33,0.00,,,0.00,WUHU216HW,2013-05-21 18:20:00,
2013-05-21 11:25:00,88.7,55.8,29.89,West,271,1.8,4.5,33,0.00,,,0.00,WUHU216HW,2013-05-21 18:25:00,
2013-05-21 11:30:00,87.8,52.6,29.89,WSW,239,2.0,4.3,30,0.00,,,0.00,WUHU216HW,2013-05-21 18:30:00,
2013-05-21 11:35:00,87.1,52.0,29.89,West,267,2.1,4.3,30,0.00,,,0.00,WUHU216HW,2013-05-21 18:35:00,
2013-05-21 11:40:00,86.8,54.1,29.89,West,277,2.0,4.7,33,0.00,,,0.00,WUHU216HW,2013-05-21 18:40:00,
2013-05-21 11:45:00,86.4,51.4,29.88,NW,305,2.3,3.4,30,0.00,,,0.00,WUHU216HW,2013-05-21 18:45:00,
2013-05-21 11:50:00,86.8,53.3,29.88,WNW,296,1.5,3.1,32,0.00,,,0.00,WUHU216HW,2013-05-21 18:50:00,
2013-05-21 11:55:00,87.5,53.9,29.88,West,273,2.2,5.4,32,0.00,,,0.00,WUHU216HW,2013-05-21 18:55:00,
2013-05-21 12:00:00,87.7,54.0,29.88,WSW,246,2.2,3.6,32,0.00,,,0.00,WUHU216HW,2013-05-21 19:00:00,
2013-05-21 12:05:00,87.8,55.8,29.88,WNW,292,1.7,6.3,34,0.00,,,0.00,WUHU216HW,2013-05-21 19:05:00,
2013-05-21 12:10:00,88.6,56.4,29.87,West,265,2.0,4.7,34,0.00,,,0.00,WUHU216HW,2013-05-21 19:10:00,
2013-05-21 12:15:00,88.9,55.9,29.87,West,278,2.4,4.3,33,0.00,,,0.00,WUHU216HW,2013-05-21 19:15:00,
2013-05-21 12:20:00,88.7,55.0,29.87,NW,315,2.1,4.0,32,0.00,,,0.00,WUHU216HW,2013-05-21 19:20:00,
2013-05-21 12:25:00,88.7,55.0,29.87,WNW,298,2.8,5.1,32,0.00,,,0.00,WUHU216HW,2013-05-21 19:25:00,
2013-05-21 12:30:00,89.5,56.4,29.87,West,279,3.0,4.3,33,0.00,,,0.00,WUHU216HW,2013-05-21 19:30:00,
2013-05-21 12:35:00,90.0,55.3,29.87,WNW,301,2.5,4.7,31,0.00,,,0.00,WUHU216HW,2013-05-21 19:35:00,
2013-05-21 12:40:00,90.7,55.2,29.86,West,269,3.5,5.4,30,0.00,,,0.00,WUHU216HW,2013-05-21 19:40:00,
2013-05-21 12:45:00,90.5,55.0,29.86,WNW,302,3.4,5.4,30,0.00,,,0.00,WUHU216HW,2013-05-21 19:45:00,
2013-05-21 12:50:00,91.3,55.6,29.86,WNW,290,3.5,7.2,30,0.00,,,0.00,WUHU216HW,2013-05-21 19:50:00,
2013-05-21 12:55:00,91.4,55.8,29.86,WNW,298,2.7,5.4,30,0.00,,,0.00,WUHU216HW,2013-05-21 19:55:00,
2013-05-21 13:00:00,92.0,56.3,29.86,WNW,288,3.6,6.3,30,0.00,,,0.00,WUHU216HW,2013-05-21 20:00:00,
2013-05-21 13:05:00,91.6,53.7,29.85,WNW,303,2.8,5.4,28,0.00,,,0.00,WUHU216HW,2013-05-21 20:05:00,
2013-05-21 13:10:00,91.6,54.8,29.85,WNW,294,2.5,5.1,29,0.00,,,0.00,WUHU216HW,2013-05-21 20:10:00,
2013-05-21 13:15:00,92.3,55.5,29.85,WNW,282,3.6,6.0,29,0.00,,,0.00,WUHU216HW,2013-05-21 20:15:00,
2013-05-21 13:20:00,92.2,53.1,29.85,WNW,291,3.2,5.4,27,0.00,,,0.00,WUHU216HW,2013-05-21 20:20:00,
2013-05-21 13:25:00,91.8,52.8,29.85,NW,315,2.4,5.1,27,0.00,,,0.00,WUHU216HW,2013-05-21 20:25:00,
2013-05-21 13:30:00,91.3,49.1,29.85,NW,306,5.8,8.1,24,0.00,,,0.00,WUHU216HW,2013-05-21 20:30:00,
2013-05-21 13:35:00,91.1,47.8,29.85,WNW,294,5.1,8.1,23,0.00,,,0.00,WUHU216HW,2013-05-21 20:35:00,
2013-05-21 13:40:00,91.1,50.1,29.85,WNW,289,2.8,5.4,25,0.00,,,0.00,WUHU216HW,2013-05-21 20:40:00,
2013-05-21 13:45:00,91.6,48.2,29.85,NW,305,3.7,5.4,23,0.00,,,0.00,WUHU216HW,2013-05-21 20:45:00,
2013-05-21 13:50:00,92.2,46.5,29.84,WNW,287,4.8,6.9,21,0.00,,,0.00,WUHU216HW,2013-05-21 20:50:00,
2013-05-21 13:55:00,92.5,46.8,29.85,WNW,288,4.6,7.2,21,0.00,,,0.00,WUHU216HW,2013-05-21 20:55:00,
2013-05-21 14:00:00,92.2,43.7,29.84,WNW,285,2.5,6.0,19,0.00,,,0.00,WUHU216HW,2013-05-21 21:00:00,
2013-05-21 14:05:00,91.6,43.2,29.84,NNW,329,2.4,6.3,19,0.00,,,0.00,WUHU216HW,2013-05-21 21:05:00,
2013-05-21 14:10:00,91.8,46.2,29.84,WNW,294,2.2,4.3,21,0.00,,,0.00,WUHU216HW,2013-05-21 21:10:00,
2013-05-21 14:15:00,92.7,49.2,29.84,WNW,285,4.0,5.8,23,0.00,,,0.00,WUHU216HW,2013-05-21 21:15:00,
2013-05-21 14:20:00,93.6,47.6,29.83,WNW,282,3.2,5.6,21,0.00,,,0.00,WUHU216HW,2013-05-21 21:20:00,
2013-05-21 14:25:00,94.1,48.1,29.83,West,278,3.1,5.1,21,0.00,,,0.00,WUHU216HW,2013-05-21 21:25:00,
2013-05-21 14:30:00,94.5,45.6,29.83,West,263,3.0,7.2,19,0.00,,,0.00,WUHU216HW,2013-05-21 21:30:00,
2013-05-21 14:35:00,94.3,43.6,29.83,WNW,288,2.8,5.6,18,0.00,,,0.00,WUHU216HW,2013-05-21 21:35:00,
2013-05-21 14:40:00,94.3,43.6,29.83,WSW,258,5.0,8.1,18,0.00,,,0.00,WUHU216HW,2013-05-21 21:40:00,
2013-05-21 14:45:00,94.3,41.9,29.83,West,264,4.3,7.8,17,0.00,,,0.00,WUHU216HW,2013-05-21 21:45:00,
2013-05-21 14:50:00,94.1,43.5,29.83,West,268,4.5,8.5,18,0.00,,,0.00,WUHU216HW,2013-05-21 21:50:00,
2013-05-21 14:55:00,93.4,42.8,29.83,WNW,293,4.0,6.5,18,0.00,,,0.00,WUHU216HW,2013-05-21 21:55:00,
2013-05-21 15:00:00,93.6,43.0,29.82,NW,307,4.5,6.3,18,0.00,,,0.00,WUHU216HW,2013-05-21 22:00:00,
2013-05-21 15:05:00,93.2,41.0,29.82,NW,310,3.5,6.3,17,0.00,,,0.00,WUHU216HW,2013-05-21 22:05:00,
2013-05-21 15:10:00,93.2,44.5,29.82,WNW,288,2.6,4.3,19,0.00,,,0.00,WUHU216HW,2013-05-21 22:10:00,
2013-05-21 15:15:00,93.2,42.8,29.82,West,264,2.7,6.7,18,0.00,,,0.00,WUHU216HW,2013-05-21 22:15:00,
2013-05-21 15:20:00,93.4,44.6,29.82,WNW,295,4.5,6.5,19,0.00,,,0.00,WUHU216HW,2013-05-21 22:20:00,
2013-05-21 15:25:00,94.0,45.1,29.82,West,275,3.1,6.5,19,0.00,,,0.00,WUHU216HW,2013-05-21 22:25:00,
2013-05-21 15:30:00,94.5,41.9,29.82,West,278,5.6,9.2,17,0.00,,,0.00,WUHU216HW,2013-05-21 22:30:00,
2013-05-21 15:35:00,94.7,43.9,29.81,West,268,4.0,9.4,18,0.00,,,0.00,WUHU216HW,2013-05-21 22:35:00,
2013-05-21 15:40:00,94.5,43.7,29.81,West,279,2.5,4.5,18,0.00,,,0.00,WUHU216HW,2013-05-21 22:40:00,
2013-05-21 15:45:00,94.9,44.0,29.81,WNW,285,3.9,8.5,18,0.00,,,0.00,WUHU216HW,2013-05-21 22:45:00,
2013-05-21 15:50:00,94.9,42.3,29.81,West,271,2.0,6.0,17,0.00,,,0.00,WUHU216HW,2013-05-21 22:50:00,
2013-05-21 15:55:00,94.1,41.7,29.80,NW,313,2.6,5.4,17,0.00,,,0.00,WUHU216HW,2013-05-21 22:55:00,
2013-05-21 16:00:00,93.6,39.5,29.80,West,273,2.5,5.4,16,0.00,,,0.00,WUHU216HW,2013-05-21 23:00:00,
2013-05-21 16:05:00,93.6,41.2,29.80,WNW,286,5.2,7.6,17,0.00,,,0.00,WUHU216HW,2013-05-21 23:05:00,
2013-05-21 16:10:00,94.0,41.6,29.80,WNW,282,4.3,7.4,17,0.00,,,0.00,WUHU216HW,2013-05-21 23:10:00,
2013-05-21 16:15:00,93.4,37.6,29.79,WNW,290,3.3,5.4,15,0.00,,,0.00,WUHU216HW,2013-05-21 23:15:00,
2013-05-21 16:20:00,93.2,37.4,29.79,WNW,295,3.3,5.8,15,0.00,,,0.00,WUHU216HW,2013-05-21 23:20:00,
2013-05-21 16:25:00,92.7,37.1,29.79,West,275,3.4,6.9,15,0.00,,,0.00,WUHU216HW,2013-05-21 23:25:00,
2013-05-21 16:30:00,92.9,39.0,29.79,WNW,299,3.1,5.6,16,0.00,,,0.00,WUHU216HW,2013-05-21 23:30:00,
2013-05-21 16:35:00,93.2,33.9,29.79,WNW,297,3.5,7.4,13,0.00,,,0.00,WUHU216HW,2013-05-21 23:35:00,
2013-05-21 16:40:00,93.6,32.4,29.79,West,279,5.0,6.9,12,0.00,,,0.00,WUHU216HW,2013-05-21 23:40:00,
2013-05-21 16:45:00,94.0,32.8,29.78,WNW,283,2.9,6.9,12,0.00,,,0.00,WUHU216HW,2013-05-21 23:45:00,
2013-05-21 16:50:00,93.2,32.1,29.78,NW,311,3.7,8.1,12,0.00,,,0.00,WUHU216HW,2013-05-21 23:50:00,
2013-05-21 16:55:00,92.3,31.5,29.78,NW,313,2.0,3.8,12,0.00,,,0.00,WUHU216HW,2013-05-21 23:55:00,
2013-05-21 17:00:00,92.0,31.2,29.78,WNW,303,3.9,6.0,12,0.00,,,0.00,WUHU216HW,2013-05-22 00:00:00,
2013-05-21 17:05:00,91.4,30.9,29.78,WNW,294,4.3,6.9,12,0.00,,,0.00,WUHU216HW,2013-05-22 00:05:00,
2013-05-21 17:10:00,91.1,30.6,29.78,NW,323,2.3,5.4,12,0.00,,,0.00,WUHU216HW,2013-05-22 00:10:00,
2013-05-21 17:15:00,90.9,30.4,29.78,WNW,294,4.0,7.6,12,0.00,,,0.00,WUHU216HW,2013-05-22 00:15:00,
2013-05-21 17:20:00,91.1,28.8,29.77,NW,311,4.0,7.2,11,0.00,,,0.00,WUHU216HW,2013-05-22 00:20:00,
2013-05-21 17:25:00,91.1,30.6,29.77,WNW,302,4.3,6.0,12,0.00,,,0.00,WUHU216HW,2013-05-22 00:25:00,
2013-05-21 17:30:00,90.9,28.7,29.77,NW,314,2.5,4.0,11,0.00,,,0.00,WUHU216HW,2013-05-22 00:30:00,
2013-05-21 17:35:00,90.7,28.5,29.77,NW,316,2.0,5.1,11,0.00,,,0.00,WUHU216HW,2013-05-22 00:35:00,
2013-05-21 17:40:00,90.7,30.2,29.77,WNW,299,2.2,4.0,12,0.00,,,0.00,WUHU216HW,2013-05-22 00:40:00,
2013-05-21 17:45:00,90.5,30.2,29.77,NW,318,2.9,6.3,12,0.00,,,0.00,WUHU216HW,2013-05-22 00:45:00,
2013-05-21 17:50:00,90.2,31.6,29.76,NW,325,2.5,5.4,13,0.00,,,0.00,WUHU216HW,2013-05-22 00:50:00,
2013-05-21 17:55:00,90.2,35.1,29.76,NW,306,4.8,7.4,15,0.00,,,0.00,WUHU216HW,2013-05-22 00:55:00,
2013-05-21 18:00:00,90.0,31.4,29.77,WNW,303,5.0,6.9,13,0.00,,,0.00,WUHU216HW,2013-05-22 01:00:00,
2013-05-21 18:05:00,89.6,31.1,29.76,WNW,303,4.9,7.4,13,0.00,,,0.00,WUHU216HW,2013-05-22 01:05:00,
2013-05-21 18:10:00,89.5,31.1,29.76,NW,307,4.6,6.3,13,0.00,,,0.00,WUHU216HW,2013-05-22 01:10:00,
2013-05-21 18:15:00,89.3,34.4,29.76,NW,307,3.9,5.6,15,0.00,,,0.00,WUHU216HW,2013-05-22 01:15:00,
2013-05-21 18:20:00,89.1,30.8,29.76,WNW,296,5.1,6.5,13,0.00,,,0.00,WUHU216HW,2013-05-22 01:20:00,
2013-05-21 18:25:00,88.7,30.5,29.76,NW,306,4.4,5.6,13,0.00,,,0.00,WUHU216HW,2013-05-22 01:25:00,
2013-05-21 18:30:00,88.2,28.4,29.76,NW,308,4.8,6.9,12,0.00,,,0.00,WUHU216HW,2013-05-22 01:30:00,
2013-05-21 18:35:00,88.0,30.0,29.76,NW,320,4.2,6.9,13,0.00,,,0.00,WUHU216HW,2013-05-22 01:35:00,
2013-05-21 18:40:00,88.2,33.6,29.76,NW,311,4.1,6.0,15,0.00,,,0.00,WUHU216HW,2013-05-22 01:40:00,
2013-05-21 18:45:00,88.0,35.2,29.76,NW,312,4.3,6.7,16,0.00,,,0.00,WUHU216HW,2013-05-22 01:45:00,
2013-05-21 18:50:00,87.7,38.4,29.76,NW,315,4.0,8.1,18,0.00,,,0.00,WUHU216HW,2013-05-22 01:50:00,
2013-05-21 18:55:00,87.3,42.5,29.76,NW,319,4.4,7.6,21,0.00,,,0.00,WUHU216HW,2013-05-22 01:55:00,
2013-05-21 19:00:00,86.8,43.1,29.76,NW,307,4.6,7.4,22,0.00,,,0.00,WUHU216HW,2013-05-22 02:00:00,
2013-05-21 19:05:00,86.6,42.9,29.76,NW,307,4.3,5.8,22,0.00,,,0.00,WUHU216HW,2013-05-22 02:05:00,
2013-05-21 19:10:00,86.0,42.5,29.76,NW,314,4.9,6.3,22,0.00,,,0.00,WUHU216HW,2013-05-22 02:10:00,
2013-05-21 19:15:00,85.7,43.3,29.76,NW,310,5.6,8.1,23,0.00,,,0.00,WUHU216HW,2013-05-22 02:15:00,
2013-05-21 19:20:00,85.1,43.9,29.76,NW,312,5.6,8.3,24,0.00,,,0.00,WUHU216HW,2013-05-22 02:20:00,
2013-05-21 19:25:00,84.6,44.5,29.76,NW,319,4.9,6.9,25,0.00,,,0.00,WUHU216HW,2013-05-22 02:25:00,
2013-05-21 19:30:00,84.2,45.3,29.76,NW,310,4.7,6.3,26,0.00,,,0.00,WUHU216HW,2013-05-22 02:30:00,
2013-05-21 19:35:00,83.9,46.0,29.76,NW,309,4.2,5.4,27,0.00,,,0.00,WUHU216HW,2013-05-22 02:35:00,
2013-05-21 19:40:00,83.5,46.7,29.76,NW,308,4.0,5.4,28,0.00,,,0.00,WUHU216HW,2013-05-22 02:40:00,
2013-05-21 19:45:00,83.3,46.6,29.76,WNW,301,4.8,6.9,28,0.00,,,0.00,WUHU216HW,2013-05-22 02:45:00,
2013-05-21 19:50:00,83.0,46.3,29.76,WNW,300,4.6,6.9,28,0.00,,,0.00,WUHU216HW,2013-05-22 02:50:00,
2013-05-21 19:55:00,82.6,47.0,29.76,NW,310,4.0,4.9,29,0.00,,,0.00,WUHU216HW,2013-05-22 02:55:00,
2013-05-21 20:00:00,81.7,46.3,29.77,NW,308,5.0,6.3,29,0.00,,,0.00,WUHU216HW,2013-05-22 03:00:00,
2013-05-21 20:05:00,81.2,45.8,29.76,NW,316,4.3,6.3,29,0.00,,,0.00,WUHU216HW,2013-05-22 03:05:00,
2013-05-21 20:10:00,81.0,46.7,29.77,NW,318,3.6,5.6,30,0.00,,,0.00,WUHU216HW,2013-05-22 03:10:00,
2013-05-21 20:15:00,81.0,46.7,29.77,NNW,338,3.6,5.6,30,0.00,,,0.00,WUHU216HW,2013-05-22 03:15:00,
2013-05-21 21:05:00,76.7,44.6,29.78,NNW,332,1.4,4.0,32,0.00,,,0.00,WUHU216HW,2013-05-22 04:05:00,
2013-05-21 21:10:00,76.3,44.3,29.78,NNW,331,1.7,5.1,32,0.00,,,0.00,WUHU216HW,2013-05-22 04:10:00,
2013-05-21 21:15:00,76.1,43.3,29.79,NW,324,2.6,6.0,31,0.00,,,0.00,WUHU216HW,2013-05-22 04:15:00,
2013-05-21 21:20:00,75.8,43.7,29.79,NW,314,4.0,5.8,32,0.00,,,0.00,WUHU216HW,2013-05-22 04:20:00,
2013-05-21 21:25:00,75.6,43.6,29.79,NW,322,3.7,6.5,32,0.00,,,0.00,WUHU216HW,2013-05-22 04:25:00,
2013-05-21 21:30:00,75.6,43.6,29.79,NW,319,4.9,7.8,32,0.00,,,0.00,WUHU216HW,2013-05-22 04:30:00,
2013-05-21 21:35:00,75.2,43.3,29.79,NW,306,4.1,6.7,32,0.00,,,0.00,WUHU216HW,2013-05-22 04:35:00,
2013-05-21 21:40:00,74.9,43.8,29.80,NW,312,3.1,6.3,33,0.00,,,0.00,WUHU216HW,2013-05-22 04:40:00,
2013-05-21 21:45:00,74.5,43.4,29.79,NW,318,2.6,4.7,33,0.00,,,0.00,WUHU216HW,2013-05-22 04:45:00,
2013-05-21 21:50:00,74.0,43.7,29.79,NW,312,3.4,6.7,34,0.00,,,0.00,WUHU216HW,2013-05-22 04:50:00,
2013-05-21 21:55:00,73.4,43.2,29.80,NW,320,3.0,5.4,34,0.00,,,0.00,WUHU216HW,2013-05-22 04:55:00,
2013-05-21 22:00:00,73.1,43.7,29.80,NW,321,2.1,5.4,35,0.00,,,0.00,WUHU216HW,2013-05-22 05:00:00,
2013-05-21 22:05:00,72.5,43.1,29.80,NW,324,2.0,5.8,35,0.00,,,0.00,WUHU216HW,2013-05-22 05:05:00,
2013-05-21 22:10:00,72.4,43.0,29.80,NW,316,1.7,3.4,35,0.00,,,0.00,WUHU216HW,2013-05-22 05:10:00,
2013-05-21 22:15:00,72.2,42.1,29.81,NW,315,1.7,3.4,34,0.00,,,0.00,WUHU216HW,2013-05-22 05:15:00,
2013-05-21 22:20:00,72.0,42.7,29.81,NNW,330,1.7,3.4,35,0.00,,,0.00,WUHU216HW,2013-05-22 05:20:00,
2013-05-21 22:25:00,71.8,42.6,29.81,NNW,339,1.6,3.4,35,0.00,,,0.00,WUHU216HW,2013-05-22 05:25:00,
2013-05-21 22:30:00,71.5,42.2,29.81,NNW,332,1.6,2.5,35,0.00,,,0.00,WUHU216HW,2013-05-22 05:30:00,
2013-05-21 22:35:00,71.1,42.0,29.81,NNW,338,1.4,2.7,35,0.00,,,0.00,WUHU216HW,2013-05-22 05:35:00,
2013-05-21 22:40:00,70.9,41.8,29.81,ENE,72,1.7,2.7,35,0.00,,,0.00,WUHU216HW,2013-05-22 05:40:00,
2013-05-21 22:45:00,70.9,42.5,29.81,NNW,334,1.8,3.1,36,0.00,,,0.00,WUHU216HW,2013-05-22 05:45:00,
2013-05-21 22:50:00,70.4,42.8,29.81,NW,317,3.9,6.5,37,0.00,,,0.00,WUHU216HW,2013-05-22 05:50:00,
2013-05-21 22:55:00,70.2,42.6,29.81,NW,315,3.7,6.9,37,0.00,,,0.00,WUHU216HW,2013-05-22 05:55:00,
2013-05-21 23:00:00,69.7,41.3,29.81,NW,316,4.0,6.9,36,0.00,,,0.00,WUHU216HW,2013-05-22 06:00:00,
2013-05-21 23:05:00,69.3,41.8,29.82,NW,320,4.7,7.4,37,0.00,,,0.00,WUHU216HW,2013-05-22 06:05:00,
2013-05-21 23:10:00,68.8,41.3,29.82,NW,310,4.5,8.1,37,0.00,,,0.00,WUHU216HW,2013-05-22 06:10:00,
2013-05-21 23:15:00,68.6,41.1,29.82,NW,314,5.8,9.8,37,0.00,,,0.00,WUHU216HW,2013-05-22 06:15:00,
2013-05-21 23:20:00,68.2,41.5,29.82,NNW,331,4.0,8.5,38,0.00,,,0.00,WUHU216HW,2013-05-22 06:20:00,
2013-05-21 23:25:00,67.9,40.5,29.82,NW,312,5.6,10.3,37,0.00,,,0.00,WUHU216HW,2013-05-22 06:25:00,
2013-05-21 23:30:00,67.5,40.9,29.83,NW,320,4.0,9.8,38,0.00,,,0.00,WUHU216HW,2013-05-22 06:30:00,
2013-05-21 23:35:00,67.1,41.3,29.82,NNW,327,3.1,5.1,39,0.00,,,0.00,WUHU216HW,2013-05-22 06:35:00,
2013-05-21 23:40:00,67.0,40.4,29.82,NW,320,5.3,9.6,38,0.00,,,0.00,WUHU216HW,2013-05-22 06:40:00,
2013-05-21 23:45:00,66.6,40.9,29.82,NW,326,2.1,5.1,39,0.00,,,0.00,WUHU216HW,2013-05-22 06:45:00,
2013-05-21 23:50:00,66.2,40.5,29.83,NW,326,5.0,9.8,39,0.00,,,0.00,WUHU216HW,2013-05-22 06:50:00,
2013-05-21 23:55:00,66.1,41.0,29.83,NW,322,4.4,8.1,40,0.00,,,0.00,WUHU216HW,2013-05-22 06:55:00,